Weather History for Beckley, WV

Change the Weather History Date:

Sunday, April 7, 2013

  Actual Average Record
Temperature  
Mean Temperature 58 °F 50 °F  
Max Temperature 69 °F 60 °F 82 °F (2010)
Min Temperature 46 °F 39 °F 14 °F (1982)
Degree Days  
Heating Degree Days 7 16  
Month to date heating degree days 158 117  
Since 1 July heating degree days 4886 4830  
Cooling Degree Days 0 0  
Month to date cooling degree days 0 0  
Year to date cooling degree days 0 1  
Growing Degree Days 8 (Base 50)    
Moisture  
Dew Point 34 °F    
Average Humidity 45    
Maximum Humidity 58    
Minimum Humidity 32    
Precipitation  
Precipitation 0.00 in 0.11 in 1.23 in (1972)
Month to date precipitation 0.91 0.74  
Year to date precipitation 9.25 9.88  
Snow  
Snow 0.00 in - - ()
Month to date snowfall 0.0  
Since 1 September snowfall 72.0  
Snow Depth 0.00 in    
Sea Level Pressure  
Sea Level Pressure 30.06 in    
Wind  
Wind Speed 10 mph (SSW)    
Max Wind Speed 24 mph    
Max Gust Speed 31 mph    
Visibility 10 miles    
Events      
T = Trace of Precipitation, MM = Missing Value Source: NWS Daily Summary

Daily Weather History Graph

Daily Weather History Graph

Search for Another Location

Airport:

Trip Planner

Search our weather history database for the weather conditions in past years. The results will help you decide how hot, cold, wet, or windy it might be!

Date:

Astronomy

Apr. 07, 2013 Rise Set
Actual Time 7:00 AM EDT 7:53 PM EDT
Civil Twilight 6:33 AM EDT 8:19 PM EDT
Nautical Twilight 6:02 AM EDT 8:51 PM EDT
Astronomical Twilight 5:29 AM EDT 9:24 PM EDT
Moon 5:14 AM EDT (4/7) 5:25 PM EDT (4/7)
Length of Visible Light 13h 46m
Length of Day
12h 52m
Waning Crescent, 8% of the Moon is Illuminated
Apr 7
Waning Crescent
Apr 10
New
Apr 18
First Quarter
Apr 25
Full
May 2
Last Quarter

Hourly Weather History & Observations

Time (EDT) Temp. Windchill Dew Point Humidity Pressure Visibility Wind Dir Wind Speed Gust Speed Precip Events Conditions
12:51 AM 50.0 °F - 30.0 °F 46% 30.11 in 10.0 mi SSE 9.2 mph - N/A   Clear
1:51 AM 48.9 °F - 28.9 °F 46% 30.09 in 10.0 mi SSE 10.4 mph - N/A   Clear
2:51 AM 48.0 °F - 28.9 °F 48% 30.09 in 10.0 mi SSE 9.2 mph - N/A   Clear
3:51 AM 46.9 °F - 28.0 °F 48% 30.07 in 10.0 mi SSE 9.2 mph - N/A   Clear
4:51 AM 46.0 °F 42.5 °F 28.9 °F 51% 30.06 in 10.0 mi SSE 6.9 mph - N/A   Clear
5:51 AM 46.9 °F - 30.0 °F 52% 30.05 in 10.0 mi SSE 10.4 mph 17.3 mph N/A   Clear
6:51 AM 46.9 °F - 30.9 °F 54% 30.07 in 10.0 mi SE 11.5 mph - N/A   Clear
7:51 AM 46.9 °F - 32.0 °F 56% 30.09 in 10.0 mi SE 9.2 mph - N/A   Clear
8:51 AM 50.0 °F - 33.1 °F 52% 30.09 in 10.0 mi SSE 5.8 mph - N/A   Clear
9:51 AM 57.0 °F - 34.0 °F 42% 30.09 in 10.0 mi SSW 10.4 mph 17.3 mph N/A   Clear
10:51 AM 60.1 °F - 35.1 °F 39% 30.09 in 10.0 mi SW 10.4 mph 24.2 mph N/A   Clear
11:51 AM 63.0 °F - 37.0 °F 38% 30.08 in 10.0 mi SW 15.0 mph 26.5 mph N/A   Clear
12:51 PM 64.9 °F - 36.0 °F 34% 30.05 in 10.0 mi WSW 16.1 mph 31.1 mph N/A   Clear
1:51 PM 66.0 °F - 35.1 °F 32% 30.03 in 10.0 mi West 15.0 mph 21.9 mph N/A   Clear
2:51 PM 68.0 °F - 37.0 °F 32% 30.01 in 10.0 mi WSW 10.4 mph 19.6 mph N/A   Partly Cloudy
3:51 PM 68.0 °F - 37.0 °F 32% 30.01 in 10.0 mi SSW 12.7 mph 20.7 mph N/A   Partly Cloudy
4:51 PM 66.0 °F - 37.0 °F 34% 30.01 in 10.0 mi SW 10.4 mph 16.1 mph N/A   Mostly Cloudy
5:51 PM 66.9 °F - 37.9 °F 34% 30.01 in 10.0 mi WSW 15.0 mph 19.6 mph N/A   Overcast
6:51 PM 64.0 °F - 37.9 °F 38% 30.03 in 10.0 mi SSW 12.7 mph - N/A   Scattered Clouds
7:51 PM 62.1 °F - 37.9 °F 41% 30.04 in 10.0 mi SW 4.6 mph - N/A   Clear
8:51 PM 59.0 °F - 37.0 °F 44% 30.04 in 10.0 mi SW 6.9 mph - N/A   Clear
9:51 PM 59.0 °F - 37.0 °F 44% 30.04 in 10.0 mi SSW 6.9 mph - N/A   Partly Cloudy
10:51 PM 57.0 °F - 35.1 °F 44% 30.04 in 10.0 mi SSW 5.8 mph - N/A   Clear
11:51 PM 57.0 °F - 35.1 °F 44% 30.03 in 10.0 mi SSW 5.8 mph - N/A   Scattered Clouds